TimePST,TemperatureF,Dew PointF,Humidity,Sea Level PressureIn,VisibilityMPH,Wind Direction,Wind SpeedMPH,Gust SpeedMPH,PrecipitationIn,Events,Conditions,WindDirDegrees,DateUTC
12:53 AM,45.0,28.0,52,30.04,10.0,West,5.8,-,N/A,,Clear,280,2012-12-11 08:53:00
1:53 AM,45.0,25.0,46,30.04,10.0,WNW,3.5,-,N/A,,Clear,300,2012-12-11 09:53:00
2:53 AM,43.0,26.1,51,30.04,10.0,WSW,9.2,-,N/A,,Clear,250,2012-12-11 10:53:00
3:53 AM,45.0,25.0,46,30.04,10.0,Calm,Calm,-,N/A,,Clear,0,2012-12-11 11:53:00
4:53 AM,43.0,28.0,56,30.02,10.0,West,4.6,-,N/A,,Clear,260,2012-12-11 12:53:00
5:53 AM,44.1,27.0,51,30.04,10.0,Calm,Calm,-,N/A,,Clear,0,2012-12-11 13:53:00
6:53 AM,44.1,25.0,47,30.05,10.0,Calm,Calm,-,N/A,,Clear,0,2012-12-11 14:53:00
7:53 AM,48.9,28.0,44,30.06,10.0,SSE,3.5,-,N/A,,Clear,150,2012-12-11 15:53:00
8:53 AM,55.9,28.9,36,30.08,10.0,SE,4.6,-,N/A,,Clear,130,2012-12-11 16:53:00
9:53 AM,62.1,36.0,38,30.07,10.0,ESE,3.5,-,N/A,,Clear,110,2012-12-11 17:53:00
10:53 AM,68.0,35.1,30,30.05,10.0,Calm,Calm,-,N/A,,Clear,0,2012-12-11 18:53:00
11:53 AM,71.1,33.1,25,30.01,10.0,Calm,Calm,-,N/A,,Clear,0,2012-12-11 19:53:00
12:53 PM,73.0,30.0,20,29.98,10.0,ENE,3.5,-,N/A,,Clear,60,2012-12-11 20:53:00
1:53 PM,73.0,28.9,20,29.96,10.0,ESE,4.6,-,N/A,,Clear,110,2012-12-11 21:53:00
2:53 PM,73.9,28.0,18,29.94,10.0,East,5.8,-,N/A,,Clear,90,2012-12-11 22:53:00
3:53 PM,72.0,28.0,20,29.93,10.0,ESE,4.6,-,N/A,,Clear,110,2012-12-11 23:53:00
4:53 PM,66.9,30.0,25,29.94,10.0,Calm,Calm,-,N/A,,Clear,0,2012-12-12 00:53:00
5:53 PM,63.0,28.9,28,29.94,10.0,South,3.5,-,N/A,,Clear,170,2012-12-12 01:53:00
6:53 PM,60.1,30.0,32,29.95,10.0,SE,3.5,-,N/A,,Clear,140,2012-12-12 02:53:00
7:53 PM,60.1,30.0,32,29.95,10.0,SSE,6.9,-,N/A,,Clear,160,2012-12-12 03:53:00
8:53 PM,57.9,32.0,37,29.94,10.0,SSE,3.5,-,N/A,,Clear,150,2012-12-12 04:53:00
9:53 PM,48.0,34.0,58,29.95,8.0,West,4.6,-,N/A,,Clear,270,2012-12-12 05:53:00
10:53 PM,50.0,30.9,48,29.95,10.0,South,3.5,-,N/A,,Clear,180,2012-12-12 06:53:00
11:53 PM,48.9,35.1,59,29.95,10.0,ESE,3.5,-,N/A,,Clear,120,2012-12-12 07:53:00